星链-31554 (STARLINK-31554 )

导读 | 星芒AI

STARLINK-31554 是 SpaceX Starlink 项目中的一颗低轨通信卫星,属于其第二代卫星星座计划的一部分。该卫星于2023年发射,旨在为全球用户提供高速、低延迟的互联网服务。它运行在约550公里高的近地轨道,配备先进通信设备,支持宽带数据传输。Starlink 卫星群致力于改善偏远地区的网络接入,推动全球互联网覆盖。STARLINK-31554 的部署增强了 Starlink 网络的稳定性和容量。

基本信息
目录编号:
59195
目录名称:
STARLINK-31554
国际标识:
2024-045T
轨道中心:
EARTH
卫星名称:
星链-31554
卫星全名:
星链-31554 (STARLINK-31554 )
卫星状态:
在轨 (已飞行601 天)
发射日期:
2024-03-10 UTC
国别 :
美国 (US)
星等 :
--
轨道信息
数据来源 国际轨道数据
星历时间: 2025-11-01T01:04:04+0800
1天前
查看轨道信息
半长轴: 6861.195km
偏心率: 0.0001709
轨道倾角: 43.001°
近地点辐角 269.595°
升交点赤经 101.123°
平近点角 90.471°
近地点: 481.887km
远地点: 484.233km
周期: 94.267分钟
每日圈数: 15.275771
详细信息
固有亮度:
5
最大亮度:
0.3
卫星平台:
Starlink v2.0 mini
覆盖范围:
全球
运营商:
太空探索技术公司
运营商所在国:
美国
制造商(研发单位):
太空探索技术公司
制造商所在国:
美国
使用方式:
暂无
卫星简介
星链(Starlink)计划是由太空探索技术公司(SpaceX)提出的一个巨型低轨卫星互联网星座项目,计划在2019年至2024年间在太空搭建由约1.2万颗卫星组成的“星链”网络,其中1584颗将部署在地球上空550千米处的近地轨道,并从2020年开始工作。该卫星仍在工作。
2D轨道图
3D轨道图
轨道高度分析图
轨道倾角分析图
轨道综合分析图
查看轨道综合分析图